Location: Balaclava NSW 2575, Australia
(34.4510°S, 150.4953°E)
Time: 16:23:23
(UTC+10:00)

A-11 Canister half - Pass Details

Date: 22 June 2021
Orbit: 1513 x 1687 km, 47.2° (Epoch: 26 July)

Event Time Altitude Azimuth Distance (km) Brightness Sun altitude
Rises 19:23:52 0° 246° (WSW) 4,741 12.4 -29.7°
Reaches altitude 10° 19:27:12 10° 238° (WSW) 3,781 11.6 -30.4°
Maximum altitude 19:36:11 41° 170° (S) 2,211 9.6 -32.2°
Enters shadow 19:36:48 41° 161° (SSE) 2,225 9.5 -32.3°
